Weather History for Louisville Bowman, KY

Change the Weather History Date:

Tuesday, March 25, 2014

  Actual Average Record
Temperature  
Mean Temperature 34 °F 50 °F  
Max Temperature 39 °F 60 °F 84 °F (2007)
Min Temperature 28 °F 40 °F 18 °F (1974)
Degree Days  
Heating Degree Days 31 15  
Month to date heating degree days 572 477  
Since 1 July heating degree days 4381 3838  
Cooling Degree Days 0 0  
Month to date cooling degree days 0 0  
Year to date cooling degree days 0 0  
Moisture  
Dew Point 23 °F    
Average Humidity 62    
Maximum Humidity 92    
Minimum Humidity 32    
Precipitation  
Precipitation T in 0.14 in 1.12 in (1964)
Month to date precipitation 1.08 3.24  
Year to date precipitation 6.85 9.80  
Sea Level Pressure  
Sea Level Pressure 30.11 in    
Wind  
Wind Speed 10 mph (WNW)    
Max Wind Speed 26 mph    
Max Gust Speed 35 mph    
Visibility 6 miles    
Events Fog , Snow    
T = Trace of Precipitation, MM = Missing Value Source: NWS Daily Summary

Daily Weather History Graph

Daily Weather History Graph

Search for Another Location

Airport:

Trip Planner

Search our weather history database for the weather conditions in past years. The results will help you decide how hot, cold, wet, or windy it might be!

Date:

Astronomy

Mar. 25, 2014 Rise Set
Actual Time 7:38 AM EDT 7:59 PM EDT
Civil Twilight 7:12 AM EDT 8:25 PM EDT
Nautical Twilight 6:41 AM EDT 8:56 PM EDT
Astronomical Twilight 6:09 AM EDT 9:28 PM EDT
Moon 3:55 AM EDT (3/25) 2:33 PM EDT (3/25)
Length of Visible Light 13h 13m
Length of Day
12h 20m
Waning Crescent, 32% of the Moon is Illuminated
Mar 25
Waning Crescent
Mar 30
New
Apr 7
First Quarter
Apr 15
Full
Apr 22
Last Quarter

Hourly Weather History & Observations

Time (EDT) Temp. Windchill Dew Point Humidity Pressure Visibility Wind Dir Wind Speed Gust Speed Precip Events Conditions
12:53 AM 35.1 °F - 25.0 °F 67% 30.14 in 10.0 mi Calm Calm - N/A   Overcast
1:53 AM 34.0 °F 29.8 °F 24.1 °F 67% 30.14 in 4.0 mi WNW 4.6 mph - 0.00 in Snow Light Snow
2:18 AM 33.8 °F 29.6 °F 26.6 °F 75% 30.12 in 3.0 mi NNW 4.6 mph - 0.00 in Snow Light Snow
2:27 AM 33.8 °F 29.6 °F 26.6 °F 75% 30.12 in 4.0 mi NW 4.6 mph - 0.00 in Snow Light Snow
2:46 AM 32.0 °F 27.5 °F 28.4 °F 87% 30.11 in 2.5 mi WNW 4.6 mph - 0.00 in Snow Light Snow
2:53 AM 32.0 °F 27.5 °F 28.0 °F 85% 30.12 in 3.0 mi NW 4.6 mph - 0.00 in Snow Light Snow
3:32 AM 30.2 °F 24.3 °F 28.4 °F 93% 30.08 in 2.5 mi NNW 5.8 mph - 0.00 in Snow Light Snow
3:53 AM 30.9 °F 27.5 °F 28.9 °F 92% 30.09 in 2.5 mi NW 3.5 mph - 0.00 in Snow Light Snow
4:11 AM 30.2 °F 23.4 °F 28.4 °F 93% 30.07 in 4.0 mi NNW 6.9 mph - 0.00 in Snow Light Snow
4:53 AM 30.9 °F 24.3 °F 28.0 °F 89% 30.06 in 5.0 mi NNW 6.9 mph - 0.00 in   Overcast
5:53 AM 30.9 °F - 28.0 °F 89% 30.05 in 8.0 mi Calm Calm - N/A   Overcast
6:53 AM 30.9 °F - 27.0 °F 85% 30.04 in 8.0 mi Calm Calm - N/A   Overcast
7:53 AM 30.9 °F 25.2 °F 26.1 °F 82% 30.05 in 9.0 mi West 5.8 mph - N/A   Overcast
8:53 AM 32.0 °F 26.4 °F 26.1 °F 79% 30.07 in 5.0 mi WNW 5.8 mph - 0.00 in Snow Light Snow
9:53 AM 33.1 °F 26.9 °F 24.1 °F 70% 30.08 in 6.0 mi NNW 6.9 mph - 0.00 in Snow Light Snow
10:09 AM 33.8 °F 26.4 °F 24.8 °F 70% 30.06 in 6.0 mi WNW 9.2 mph - 0.00 in Snow Light Snow
10:53 AM 33.1 °F 24.9 °F 26.1 °F 75% 30.09 in 4.0 mi WSW 10.4 mph - 0.00 in Snow Light Snow
11:19 AM 33.8 °F 24.8 °F 24.8 °F 70% 30.08 in 6.0 mi West 12.7 mph - 0.00 in Snow Light Snow
11:26 AM 33.8 °F 25.3 °F 26.6 °F 75% 30.08 in 2.5 mi West 11.5 mph - 0.00 in Snow Light Snow
11:42 AM 33.8 °F 25.3 °F 26.6 °F 75% 30.08 in 6.0 mi West 11.5 mph - 0.00 in Snow Light Snow
11:53 AM 34.0 °F 25.5 °F 26.1 °F 73% 30.09 in 6.0 mi West 11.5 mph - 0.00 in Snow Light Snow
12:09 PM 33.8 °F 27.0 °F 24.8 °F 70% 30.07 in 10.0 mi WSW 8.1 mph - N/A   Overcast
12:40 PM 33.8 °F 25.3 °F 26.6 °F 75% 30.07 in 2.5 mi West 11.5 mph - 0.00 in Snow Light Snow
12:53 PM 34.0 °F 25.5 °F 28.0 °F 79% 30.09 in 2.5 mi WSW 11.5 mph 18.4 mph 0.00 in Snow Light Snow
1:06 PM 33.8 °F 24.8 °F 28.4 °F 81% 30.07 in 1.2 mi West 12.7 mph 19.6 mph 0.00 in Snow Light Snow
1:12 PM 32.0 °F 21.2 °F 28.4 °F 87% 30.07 in 0.5 mi West 16.1 mph 24.2 mph 0.00 in Fog , Snow Snow
1:21 PM 32.0 °F 21.2 °F 28.4 °F 87% 30.08 in 1.0 mi WNW 16.1 mph 27.6 mph 0.00 in Snow Light Snow
1:26 PM 32.0 °F 21.6 °F 28.4 °F 87% 30.08 in 6.0 mi WNW 15.0 mph 27.6 mph 0.00 in Snow Light Snow
1:53 PM 36.0 °F 26.7 °F 26.1 °F 67% 30.09 in 10.0 mi NW 15.0 mph 24.2 mph 0.00 in   Overcast
2:53 PM 37.9 °F 26.8 °F 12.0 °F 35% 30.10 in 10.0 mi NW 24.2 mph 33.4 mph N/A   Mostly Cloudy
3:53 PM 36.0 °F 25.3 °F 12.9 °F 39% 30.12 in 10.0 mi NW 19.6 mph 28.8 mph N/A   Overcast
4:53 PM 37.0 °F 26.4 °F 10.0 °F 33% 30.13 in 10.0 mi WNW 20.7 mph 31.1 mph N/A   Mostly Cloudy
5:53 PM 36.0 °F 26.7 °F 10.9 °F 36% 30.15 in 10.0 mi WNW 15.0 mph 26.5 mph N/A   Mostly Cloudy
6:53 PM 35.1 °F 25.2 °F 16.0 °F 46% 30.17 in 9.0 mi WNW 16.1 mph 23.0 mph 0.00 in   Overcast
7:53 PM 33.1 °F 23.4 °F 12.9 °F 43% 30.19 in 10.0 mi WNW 13.8 mph 21.9 mph N/A   Clear
8:53 PM 32.0 °F 21.2 °F 12.0 °F 44% 30.21 in 10.0 mi NW 16.1 mph 20.7 mph N/A   Scattered Clouds
9:53 PM 30.9 °F 22.8 °F 12.9 °F 47% 30.23 in 10.0 mi NW 9.2 mph - N/A   Mostly Cloudy
10:53 PM 30.0 °F 24.1 °F 12.0 °F 47% 30.25 in 10.0 mi NW 5.8 mph - N/A   Partly Cloudy
11:53 PM 30.0 °F 23.2 °F 10.0 °F 43% 30.26 in 10.0 mi NW 6.9 mph - N/A   Partly Cloudy